Latest Coastal Weather Observations for Northern Endeavour (near 10.5S 126E)

IDD60701

Issued at 1:31 pm CST Tuesday 31 May 2016 (issued every 10 minutes, with the page automatically refreshed every 10 minutes)

About coastal observations | Map of coastal stations | Coastal observations for NT | Marine services | Other Formats
Station Details ID: 200212 Name: NORTHERN ENDEAVOUR Lat: -10.61 Lon: 125.98 Height: 16.0 m
Data from the previous 72 hours. | See also: Recent months for locations in Northern Territory
Date/Time
CST
Temp

°C
Wind Pressure Rain
since 9am
mm
Weather Cloud Vis
km
Sea
Height
m
Swell
Dir
 
Speed
knots
Gust
knots
hPa Trend Height
m
Period
s
Dir
31/01:30pm 32.2 ESE 12 13 1011.8 - - - Partly cloudy 10 - - - -
31/01:20pm 31.1 ESE 12 14 1012.0 - - - Partly cloudy 10 - - - -
31/01:10pm 31.6 SE 12 13 1012.1 - - - Partly cloudy 10 - - - -
31/01:00pm 32.1 SE 11 13 1012.1 - - - Partly cloudy 10 - - - -
31/12:50pm 32.2 SE 12 12 1012.3 - - - Partly cloudy 10 - - - -
31/12:40pm 32.2 SE 12 14 1012.5 - - - Partly cloudy 10 - - - -
31/12:30pm 32.2 SE 13 14 1012.6 - - - Partly cloudy 10 - - - -
31/12:20pm 31.8 SE 14 14 1012.7 - - - Partly cloudy 10 - - - -
31/12:10pm 31.3 SE 14 16 1012.8 - - - Partly cloudy 10 - - - -
31/12:00pm 31.5 ESE 13 15 1012.9 - - - Partly cloudy 10 - - - -
31/11:50am 31.1 ESE 13 14 1013.0 - - - Partly cloudy 10 - - - -
31/11:40am 31.7 ESE 13 15 1013.2 - - - Partly cloudy 10 - - - -
31/11:30am 31.5 ESE 11 12 1013.3 - - - Partly cloudy 10 - - - -
31/11:20am 31.5 E 11 12 1013.4 - - - - 10 - - - -
31/11:10am 31.4 E 10 12 1013.6 - - - - 10 - - - -
31/11:00am 30.9 ESE 11 12 1013.7 - - - Partly cloudy 10 - - - -
31/10:50am 31.4 ESE 12 14 1013.7 - - - Partly cloudy 10 - - - -
31/10:40am 31.3 ESE 12 12 1013.8 - - - Partly cloudy 10 - - - -
31/10:30am 30.8 E 11 14 1013.8 - - - Partly cloudy 10 - - - -
31/10:20am 30.6 ESE 13 12 1013.8 - - - - 10 - - - -
31/10:10am 30.8 E 11 13 1013.6 - - - - 10 - - - -
31/10:00am 29.9 E 9 11 1013.7 - - - Partly cloudy 10 - - - -
31/09:50am 30.1 E 10 13 1013.7 - - - Partly cloudy 10 - - - -
31/09:40am 30.1 E 11 13 1013.6 - - - Partly cloudy 10 - - - -
31/09:30am 30.6 ESE 12 13 1013.5 - - - Partly cloudy 10 - - - -
31/09:20am 29.8 E 10 12 1013.4 - - - Partly cloudy 10 - - - -
31/09:10am 30.1 E 9 12 1013.4 - - - - 10 - - - -
31/09:00am 29.7 E 10 10 1013.4 - - - - 10 - - - -
31/08:50am 29.9 E 11 12 1013.3 - - - - 10 - - - -
31/08:40am 29.8 E 12 12 1013.2 - - - - 10 - - - -
31/08:30am 29.9 ESE 12 13 1013.1 - - - - 10 - - - -
31/08:20am 29.7 E 13 14 1013.1 - - - - 10 - - - -
31/08:10am 29.5 E 14 15 1013.0 - - - - 10 - - - -
31/08:00am 29.0 E 10 14 1013.0 - - - Partly cloudy 10 - - - -
31/07:50am 28.8 E 11 13 1012.9 - - - Partly cloudy 10 - - - -
31/07:40am 28.9 E 14 16 1012.8 - - - Partly cloudy 10 - - - -
31/07:30am 28.8 E 14 18 1012.8 - - - Partly cloudy 10 - - - -
31/07:20am 28.8 E 13 15 1012.6 - - - Partly cloudy 10 - - - -
31/07:10am 28.6 ESE 11 15 1012.5 - - - Partly cloudy 10 - - - -
31/07:00am 28.7 ESE 11 14 1012.4 - - - Partly cloudy 10 - - - -
31/06:50am 28.9 ESE 11 13 1012.3 - - - Partly cloudy 10 - - - -
31/06:40am 28.8 E 10 11 1012.3 - - - Partly cloudy 10 - - - -
31/06:30am 28.8 ENE 10 12 1012.3 - - - Partly cloudy 10 - - - -
31/06:20am 28.9 E 11 13 1012.3 - - - Partly cloudy 10 - - - -
31/06:10am 28.8 E 11 13 1012.3 - - - - 10 - - - -
31/06:00am 28.8 E 9 13 1012.1 - - - - 10 - - - -
31/05:50am 28.8 E 8 12 1012.1 - - - - 10 - - - -
31/05:40am 28.8 E 8 12 1012.1 - - - Partly cloudy 10 - - - -
31/05:30am 28.8 E 9 11 1012.0 - - - Partly cloudy 10 - - - -
31/05:20am 28.7 E 8 10 1012.0 - - - Partly cloudy 10 - - - -
31/05:10am 28.8 E 8 10 1012.0 - - - Partly cloudy 10 - - - -
31/05:00am 28.7 E 8 12 1012.0 - - - Partly cloudy 10 - - - -
31/04:50am 28.7 E 9 9 1012.0 - - - Partly cloudy 10 - - - -
31/04:40am 28.7 E 8 9 1012.0 - - - Partly cloudy 10 - - - -
31/04:30am 28.7 E 8 12 1012.1 - - - Partly cloudy 10 - - - -
31/04:20am 28.7 E 8 9 1012.1 - - - Partly cloudy 10 - - - -
31/04:10am 28.6 E 7 9 1012.0 - - - Partly cloudy 10 - - - -
31/04:00am 28.7 E 8 8 1012.0 - - - Partly cloudy 10 - - - -
31/03:50am 28.7 E 9 9 1012.0 - - - Partly cloudy 10 - - - -
31/03:40am 28.7 E 11 11 1012.0 - - - Partly cloudy 10 - - - -
31/03:30am 28.8 E 11 13 1012.1 - - - - 10 - - - -
31/03:20am 28.7 E 9 11 1012.1 - - - - 10 - - - -
31/03:10am 28.7 E 9 11 1012.1 - - - Partly cloudy 10 - - - -
31/03:00am 28.7 ESE 12 12 1012.2 - - - Partly cloudy 10 - - - -
31/02:50am 28.9 ESE 11 14 1012.3 - - - Partly cloudy 10 - - - -
31/02:40am 28.9 E 9 11 1012.4 - - - Partly cloudy 10 - - - -
31/02:30am 28.9 E 9 11 1012.4 - - - Partly cloudy 10 - - - -
31/02:20am 28.9 E 9 10 1012.5 - - - Partly cloudy 10 - - - -
31/02:10am 28.8 E 7 9 1012.5 - - - Partly cloudy 10 - - - -
31/02:00am 28.7 E 7 7 1012.6 - - - Partly cloudy 10 - - - -
31/01:50am 28.8 E 8 7 1012.7 - - - Partly cloudy 10 - - - -
31/01:40am 28.8 E 9 9 1012.6 - - - - 10 - - - -
31/01:30am 28.8 ESE 10 11 1012.7 - - - - 10 - - - -
31/01:20am 28.8 ESE 10 12 1012.7 - - - - 10 - - - -
31/01:10am 28.8 ESE 10 12 1012.7 - - - - 10 - - - -
31/01:00am 28.9 ESE 11 11 1012.7 - - - Partly cloudy 10 - - - -
31/12:50am 28.8 ESE 11 12 1012.8 - - - Partly cloudy 10 - - - -
31/12:40am 28.8 ESE 12 13 1012.8 - - - Partly cloudy 10 - - - -
31/12:30am 29.0 E 12 13 1012.8 - - - - 10 - - - -
31/12:20am 29.0 E 11 11 1012.8 - - - - 10 - - - -
31/12:10am 29.0 E 11 12 1012.7 - - - - 10 - - - -
31/12:00am 29.0 E 11 12 1012.8 - - - - 10 - - - -
 
Date/Time
CST
Temp

°C
Wind Pressure Rain
since 9am
mm
Weather Cloud Vis
km
Sea
Height
m
Swell
Dir
 
Speed
knots
Gust
knots
hPa Trend Height
m
Period
s
Dir
30/11:50pm 29.1 E 12 13 1012.7 - - - Partly cloudy 10 - - - -
30/11:40pm 29.1 E 10 12 1012.8 - - - Partly cloudy 10 - - - -
30/11:30pm 29.0 E 9 12 1012.9 - - - Partly cloudy 10 - - - -
30/11:20pm 28.8 E 9 12 1012.8 - - - Partly cloudy 10 - - - -
30/11:10pm 28.9 ESE 11 11 1012.9 - - - Partly cloudy 10 - - - -
30/11:00pm 29.0 E 8 10 1012.9 - - - Partly cloudy 10 - - - -
30/10:50pm 29.1 E 9 10 1013.0 - - - Partly cloudy 10 - - - -
30/10:40pm 29.1 E 7 7 1013.0 - - - Partly cloudy 10 - - - -
30/10:30pm 29.2 E 8 10 1013.0 - - - - 10 - - - -
30/10:20pm 29.1 E 8 9 1013.0 - - - Partly cloudy 10 - - - -
30/10:10pm 29.1 E 8 10 1012.9 - - - - 10 - - - -
30/10:00pm 29.1 E 8 12 1012.9 - - - - 10 - - - -
30/09:50pm 29.1 E 8 11 1012.9 - - - - 10 - - - -
30/09:40pm 29.1 E 9 10 1012.9 - - - - 10 - - - -
30/09:30pm 29.1 E 10 12 1012.9 - - - - 10 - - - -
30/09:20pm 29.1 E 11 13 1012.9 - - - - 10 - - - -
30/09:10pm 29.1 E 9 12 1012.8 - - - - 10 - - - -
30/09:00pm 29.1 E 9 12 1012.7 - - - - 10 - - - -
30/08:50pm 29.1 E 11 13 1012.5 - - - - 10 - - - -
30/08:40pm 29.2 E 11 12 1012.5 - - - Partly cloudy 10 - - - -
30/08:30pm 29.1 E 13 15 1012.4 - - - Partly cloudy 10 - - - -
30/08:20pm 29.2 E 12 14 1012.3 - - - Partly cloudy 10 - - - -
30/08:10pm 29.2 E 10 12 1012.2 - - - Partly cloudy 10 - - - -
30/08:00pm 29.2 E 7 9 1012.1 - - - Partly cloudy 10 - - - -
30/07:50pm 29.1 E 10 11 1012.0 - - - - 10 - - - -
30/07:40pm 29.1 E 9 11 1011.9 - - - Partly cloudy 10 - - - -
30/07:30pm 29.1 E 8 11 1011.7 - - - Partly cloudy 10 - - - -
30/07:20pm 29.1 E 9 11 1011.7 - - - Partly cloudy 10 - - - -
30/07:10pm 29.1 E 10 13 1011.6 - - - Partly cloudy 10 - - - -
30/07:00pm 29.3 E 8 11 1011.4 - - - Partly cloudy 10 - - - -
30/06:50pm 29.6 E 11 10 1011.3 - - - Partly cloudy 10 - - - -
30/06:40pm 30.3 E 11 13 1011.2 - - - Partly cloudy 10 - - - -
30/06:30pm 31.0 E 11 14 1011.2 - - - Partly cloudy 10 - - - -
30/06:20pm 31.3 E 11 12 1011.1 - - - - 10 - - - -
30/06:10pm 31.6 E 10 12 1011.0 - - - - 10 - - - -
30/06:00pm 31.4 E 10 12 1010.9 - - - - 10 - - - -
30/05:50pm 32.5 E 11 13 1010.8 - - - - 10 - - - -
30/05:40pm 32.4 E 10 13 1010.7 - - - Partly cloudy 10 - - - -
30/05:30pm 32.3 E 10 11 1010.6 - - - - 10 - - - -
30/05:20pm 32.1 E 9 12 1010.5 - - - - 10 - - - -
30/05:10pm 32.5 E 10 11 1010.4 - - - - 10 - - - -
30/05:00pm 32.4 E 10 12 1010.4 - - - - 10 - - - -
30/04:50pm 32.0 ENE 11 11 1010.4 - - - - 10 - - - -
30/04:40pm 31.9 ENE 11 11 1010.3 - - - - 10 - - - -
30/04:30pm 31.4 ENE 11 12 1010.3 - - - - 10 - - - -
30/04:20pm 30.8 ENE 10 12 1010.3 - - - Partly cloudy 10 - - - -
30/04:10pm 30.2 NE 10 12 1010.3 - - - Partly cloudy 10 - - - -
30/04:00pm 29.3 NE 11 14 1010.4 - - - Partly cloudy 10 - - - -
30/03:50pm 31.5 E 12 13 1010.3 - - - Partly cloudy 10 - - - -
30/03:40pm 31.1 E 9 13 1010.3 - - - Partly cloudy 10 - - - -
30/03:30pm 31.1 E 10 13 1010.4 - - - - 10 - - - -
30/03:20pm 32.2 E 11 14 1010.5 - - - - 10 - - - -
30/03:10pm 33.0 E 10 11 1010.6 - - - - 10 - - - -
30/03:00pm 33.0 E 11 13 1010.7 - - - - 10 - - - -
30/02:50pm 32.8 E 11 13 1010.7 - - - - 10 - - - -
30/02:40pm 33.0 E 11 11 1010.8 - - - - 10 - - - -
30/02:30pm 32.9 ENE 10 13 1010.8 - - - - 10 - - - -
30/02:20pm 31.6 ENE 8 9 1010.9 - - - - 10 - - - -
30/02:10pm 30.9 ENE 8 10 1011.0 - - - - 10 - - - -
30/02:00pm 30.5 E 9 11 1011.1 - - - - 10 - - - -
30/01:50pm 31.2 E 8 10 1011.3 - - - - 10 - - - -
30/01:40pm 30.8 E 9 10 1011.3 - - - - 10 - - - -
30/01:30pm 31.0 E 8 9 1011.4 - - - - 10 - - - -
30/01:20pm 32.1 E 9 9 1011.6 - - - - 10 - - - -
30/01:10pm 31.7 E 9 9 1011.8 - - - - 10 - - - -
30/01:00pm 30.9 E 9 10 1012.0 - - - - 10 - - - -
30/12:50pm 31.9 E 9 10 1012.1 - - - - 10 - - - -
30/12:40pm 31.8 E 9 10 1012.2 - - - - 10 - - - -
30/12:30pm 32.4 E 10 10 1012.3 - - - Partly cloudy 10 - - - -
30/12:20pm 32.6 E 9 10 1012.4 - - - Partly cloudy 10 - - - -
30/12:10pm 30.5 ESE 8 11 1012.5 - - - Partly cloudy 10 - - - -
30/12:00pm 30.3 ESE 9 10 1012.7 - - - Partly cloudy 10 - - - -
30/11:50am 31.6 E 10 13 1012.7 - - - Partly cloudy 10 - - - -
30/11:40am 31.6 E 10 13 1012.7 - - - Partly cloudy 10 - - - -
30/11:30am 32.1 E 10 10 1012.7 - - - Partly cloudy 10 - - - -
30/11:20am 31.7 E 9 11 1012.7 - - - Partly cloudy 10 - - - -
30/11:10am 32.4 E 10 12 1012.8 - - - - 10 - - - -
30/11:00am 32.2 E 10 11 1012.9 - - - Partly cloudy 10 - - - -
30/10:50am 32.1 E 10 13 1012.9 - - - Partly cloudy 10 - - - -
30/10:40am 31.7 E 9 10 1013.0 - - - Partly cloudy 10 - - - -
30/10:30am 31.0 E 7 8 1013.2 - - - Partly cloudy 10 - - - -
30/10:20am 31.3 E 8 9 1013.2 - - - Partly cloudy 10 - - - -
30/10:10am 31.1 E 8 11 1013.1 - - - - 10 - - - -
30/10:00am 30.8 E 7 12 1013.1 - - - - 10 - - - -
30/09:50am 31.0 E 8 11 1013.1 - - - - 10 - - - -
30/09:40am 30.6 E 8 10 1013.0 - - - - 10 - - - -
30/09:30am 30.7 E 9 11 1012.9 - - - Partly cloudy 10 - - - -
30/09:20am 29.9 E 9 11 1012.8 - - - Partly cloudy 10 - - - -
30/09:10am 29.9 E 10 10 1012.8 - - - Partly cloudy 10 - - - -
30/09:00am 29.8 E 10 11 1012.7 - - - - 10 - - - -
30/08:50am 30.0 E 10 12 1012.6 - - - Partly cloudy 10 - - - -
30/08:40am 30.1 E 10 10 1012.5 - - - Partly cloudy 10 - - - -
30/08:30am 29.7 E 10 12 1012.3 - - - Partly cloudy 1 - - - -
30/08:20am 29.1 E 10 13 1012.3 - - - Partly cloudy 10 - - - -
30/08:10am 29.0 E 10 10 1012.2 - - - Partly cloudy 10 - - - -
30/08:00am 28.9 E 10 11 1012.1 - - - Partly cloudy 10 - - - -
30/07:50am 28.7 ENE 9 9 1012.0 - - - Partly cloudy 10 - - - -
30/07:40am 28.7 ENE 9 10 1011.9 - - - Partly cloudy 10 - - - -
30/07:30am 28.5 ENE 9 9 1011.9 - - - Partly cloudy 10 - - - -
30/07:20am 28.5 ENE 9 10 1011.6 - - - Partly cloudy 10 - - - -
30/07:10am 28.5 ENE 9 11 1011.7 - - - Partly cloudy 10 - - - -
30/07:00am 28.4 E 8 9 1011.5 - - - Partly cloudy 10 - - - -
30/06:50am 28.5 ENE 9 10 1011.3 - - - - 10 - - - -
30/06:40am 28.6 ENE 9 9 1011.3 - - - - 10 - - - -
30/06:30am 28.6 ENE 10 11 1011.3 - - - Partly cloudy 10 - - - -
30/06:20am 28.6 ENE 9 11 1011.4 - - - Partly cloudy 10 - - - -
30/06:10am 28.7 ENE 10 10 1011.4 - - - Partly cloudy 10 - - - -
30/06:00am 28.7 E 9 11 1011.4 - - - Partly cloudy 10 - - - -
30/05:50am 28.7 ENE 8 11 1011.2 - - - Partly cloudy 10 - - - -
30/05:40am 28.8 ENE 7 7 1011.3 - - - Partly cloudy 10 - - - -
30/05:30am 28.6 E 10 12 1011.3 - - - Partly cloudy 10 - - - -
30/05:20am 28.7 E 10 12 1011.3 - - - Partly cloudy 10 - - - -
30/05:10am 28.5 E 9 10 1011.2 - - - Partly cloudy 10 - - - -
30/05:00am 28.4 E 8 9 1011.2 - - - Partly cloudy 10 - - - -
30/04:50am 28.5 E 9 10 1011.1 - - - Partly cloudy 10 - - - -
30/04:40am 28.4 ENE 8 9 1011.1 - - - - 10 - - - -
30/04:30am 28.5 E 9 10 1011.1 - - - - 10 - - - -
30/04:20am 28.4 E 8 10 1011.2 - - - Partly cloudy 10 - - - -
30/04:10am 28.4 E 8 9 1011.2 - - - - 10 - - - -
30/04:00am 28.5 ENE 8 11 1011.2 - - - - 10 - - - -
30/03:50am 28.4 ENE 9 11 1011.2 - - - - 10 - - - -
30/03:40am 28.5 ENE 9 12 1011.2 - - - - 10 - - - -
30/03:30am 28.5 ENE 10 11 1011.3 - - - Partly cloudy 10 - - - -
30/03:20am 28.5 ENE 9 10 1011.4 - - - Partly cloudy 10 - - - -
30/03:10am 28.5 ENE 9 12 1011.5 - - - Partly cloudy 10 - - - -
30/03:00am 28.5 E 7 12 1011.5 - - - Partly cloudy 10 - - - -
30/02:50am 28.4 E 8 9 1011.6 - - - Partly cloudy 10 - - - -
30/02:40am 28.6 E 10 9 1011.7 - - - Partly cloudy 10 - - - -
30/02:30am 28.7 E 11 14 1011.8 - - - - 10 - - - -
30/02:20am 28.7 E 11 14 1011.7 - - - Partly cloudy 10 - - - -
30/02:10am 28.7 E 12 12 1011.8 - - - Partly cloudy 10 - - - -
30/02:00am 28.9 E 10 13 1011.9 - - - Partly cloudy 10 - - - -
30/01:50am 28.8 E 12 13 1012.0 - - - Partly cloudy 10 - - - -
30/01:40am 28.9 E 11 14 1012.0 - - - Partly cloudy 10 - - - -
30/01:30am 29.0 E 11 14 1012.1 - - - Partly cloudy 10 - - - -
30/01:20am 28.9 E 10 13 1012.3 - - - Partly cloudy 10 - - - -
30/01:10am 28.7 ENE 11 14 1012.3 - - - Partly cloudy 10 - - - -
30/01:00am 28.6 E 11 12 1012.3 - - - Partly cloudy 10 - - - -
30/12:50am 28.6 E 9 13 1012.4 - - - Partly cloudy 10 - - - -
30/12:40am 28.7 E 9 10 1012.3 - - - Partly cloudy 10 - - - -
30/12:30am 28.7 E 10 12 1012.5 - - - Partly cloudy 10 - - - -
30/12:20am 28.8 E 10 14 1012.6 - - - Partly cloudy 10 - - - -
30/12:10am 28.8 E 11 12 1012.6 - - - Partly cloudy 10 - - - -
30/12:00am 28.8 ENE 11 12 1012.7 - - - Partly cloudy 10 - - - -
 
Date/Time
CST
Temp

°C
Wind Pressure Rain
since 9am
mm
Weather Cloud Vis
km
Sea
Height
m
Swell
Dir
 
Speed
knots
Gust
knots
hPa Trend Height
m
Period
s
Dir
29/11:50pm 28.7 ENE 11 13 1012.9 - - - Partly cloudy 10 - - - -
29/11:40pm 28.7 ENE 10 12 1012.9 - - - Partly cloudy 10 - - - -
29/11:30pm 28.7 E 12 12 1012.9 - - - Partly cloudy 10 - - - -
29/11:20pm 28.8 E 13 13 1013.0 - - - Partly cloudy 10 - - - -
29/11:10pm 28.8 E 10 14 1013.0 - - - Partly cloudy 10 - - - -
29/11:00pm 28.6 E 9 9 1013.0 - - - Partly cloudy 10 - - - -
29/10:50pm 28.7 E 10 11 1013.0 - - - Partly cloudy 10 - - - -
29/10:40pm 28.7 E 8 12 1013.0 - - - Partly cloudy 10 - - - -
29/10:30pm 28.7 E 9 11 1013.1 - - - Partly cloudy 10 - - - -
29/10:20pm 28.6 E 9 9 1012.9 - - - Partly cloudy 10 - - - -
29/10:10pm 28.6 E 8 11 1013.1 - - - Partly cloudy 10 - - - -
29/10:00pm 28.6 E 8 11 1013.1 - - - Partly cloudy 10 - - - -
29/09:50pm 28.7 E 8 12 1013.0 - - - Partly cloudy 10 - - - -
29/09:40pm 28.6 ENE 9 10 1013.0 - - - Partly cloudy 10 - - - -
29/09:30pm 28.6 E 10 11 1012.9 - - - Partly cloudy 10 - - - -
29/09:20pm 28.6 E 9 11 1012.9 - - - Partly cloudy 10 - - - -
29/09:10pm 28.6 ENE 6 8 1012.8 - - - Partly cloudy 10 - - - -
29/09:00pm 28.5 E 7 8 1012.8 - - - - 10 - - - -
29/08:50pm 28.6 E 8 10 1012.6 - - - - 10 - - - -
29/08:40pm 28.6 E 8 8 1012.5 - - - Partly cloudy 10 - - - -
29/08:30pm 28.7 E 8 9 1012.3 - - - - 10 - - - -
29/08:20pm 28.6 E 7 8 1012.2 - - - Partly cloudy 10 - - - -
29/08:10pm 28.5 E 7 9 1012.0 - - - - 10 - - - -
29/08:00pm 28.5 E 8 10 1011.7 - - - Partly cloudy 10 - - - -
29/07:50pm 28.6 E 7 10 1011.8 - - - Partly cloudy 10 - - - -
29/07:40pm 28.5 E 10 11 1011.6 - - - Partly cloudy 10 - - - -
29/07:30pm 28.6 E 10 10 1011.6 - - - Partly cloudy 10 - - - -
29/07:20pm 28.5 E 9 9 1011.6 - - - Partly cloudy 10 - - - -
29/07:10pm 28.6 E 9 9 1011.7 - - - Partly cloudy 10 - - - -
29/07:00pm 28.6 E 8 9 1011.6 - - - Partly cloudy 10 - - - -
29/06:50pm 28.6 E 7 11 1011.5 - - - Partly cloudy 10 - - - -
29/06:40pm 28.5 E 8 9 1011.5 - - - Partly cloudy 10 - - - -
29/06:30pm 28.6 E 8 10 1011.4 - - - Partly cloudy 10 - - - -
29/06:20pm 28.6 E 6 6 1011.4 - - - Partly cloudy 10 - - - -
29/06:10pm 28.7 E 7 8 1011.3 - - - Partly cloudy 10 - - - -
29/06:00pm 28.6 E 7 8 1011.2 - - - Partly cloudy 10 - - - -
29/05:50pm 28.7 E 7 8 1011.1 - - - - 10 - - - -
29/05:40pm 28.8 E 7 10 1011.0 - - - - 10 - - - -
29/05:30pm 28.8 E 6 7 1011.0 - - - - 10 - - - -
29/05:20pm 29.0 E 6 7 1010.9 - - - - 10 - - - -
29/05:10pm 29.7 E 5 7 1010.9 - - - - 10 - - - -
29/05:00pm 30.0 E 4 7 1010.9 - - - - 10 - - - -
29/04:50pm 30.2 E 5 6 1010.9 - - - Partly cloudy 10 - - - -
29/04:40pm 31.0 E 5 6 1010.9 - - - Partly cloudy 10 - - - -
29/04:30pm 32.1 E 4 6 1010.9 - - - Partly cloudy 10 - - - -
29/04:20pm 32.6 E 6 6 1010.8 - - - Partly cloudy 10 - - - -
29/04:10pm 30.8 ENE 6 8 1010.8 - - - Partly cloudy 10 - - - -
29/04:00pm 29.8 ENE 6 8 1010.8 - - - - 10 - - - -
29/03:50pm 30.2 ENE 5 9 1010.9 - - - - 10 - - - -
29/03:40pm 30.2 ENE 4 6 1010.8 - - - - 10 - - - -
29/03:30pm 29.8 NE 6 6 1010.8 - - - - 10 - - - -
29/03:20pm 29.7 ENE 6 6 1010.9 - - - - 10 - - - -
29/03:10pm 30.4 NE 6 7 1011.0 - - - - 10 - - - -
29/03:00pm 29.8 ENE 7 9 1011.0 - - - - 10 - - - -
29/02:50pm 29.7 ENE 6 9 1011.1 - - - - 10 - - - -
29/02:40pm 29.9 ENE 7 8 1011.1 - - - - 10 - - - -
29/02:30pm 30.8 NE 7 9 1011.2 - - - - 10 - - - -
29/02:20pm 29.6 NNE 7 9 1011.3 - - - - 10 - - - -
29/02:10pm 29.7 NE 7 9 1011.4 - - - - 10 - - - -
29/02:00pm 29.6 NE 7 8 1011.5 - - - - 10 - - - -
29/01:50pm 29.6 NE 6 9 1011.6 - - - - 10 - - - -
29/01:40pm 29.8 ENE 5 9 1011.7 - - - - 10 - - - -
29/01:30pm 30.2 ENE 7 9 1011.8 - - - - 10 - - - -
29/01:20pm 30.0 ENE 6 5 1012.1 - - - Partly cloudy 10 - - - -
29/01:10pm 30.4 ENE 6 8 1012.3 - - - Partly cloudy 10 - - - -
29/01:00pm 30.3 ENE 6 7 1012.4 - - - Partly cloudy 10 - - - -
29/12:50pm 32.0 ENE 5 5 1012.6 - - - - 10 - - - -
29/12:40pm 31.1 ENE 5 5 1012.7 - - - Partly cloudy 10 - - - -
29/12:30pm 31.9 ENE 6 7 1012.9 - - - Partly cloudy 10 - - - -
29/12:20pm 31.2 E 4 7 1013.0 - - - Partly cloudy 10 - - - -
29/12:10pm 31.4 E 5 5 1013.2 - - - Partly cloudy 10 - - - -
29/12:00pm 32.0 E 5 5 1013.2 - - - Partly cloudy 10 - - - -
29/11:50am 31.6 E 5 9 1013.3 - - - Partly cloudy 10 - - - -
29/11:40am 31.4 E 4 7 1013.4 - - - Partly cloudy 10 - - - -
29/11:30am 31.4 ENE 5 6 1013.4 - - - Partly cloudy 10 - - - -
29/11:20am 30.5 E 6 7 1013.5 - - - Partly cloudy 10 - - - -
29/11:10am 30.5 ENE 6 7 1013.6 - - - Partly cloudy 10 - - - -
29/11:00am 31.2 E 5 7 1013.7 - - - Partly cloudy 10 - - - -
29/10:50am 30.8 E 5 6 1013.7 - - - Partly cloudy 10 - - - -
29/10:40am 29.5 E 6 6 1013.7 - - - Partly cloudy 10 - - - -
29/10:30am 28.8 E 7 6 1013.7 - - - Partly cloudy 10 - - - -
29/10:20am 28.7 E 6 7 1013.7 - - - - 10 - - - -
29/10:10am 28.8 E 5 7 1013.8 - - - - 10 - - - -
29/10:00am 28.6 E 6 7 1013.7 - - - Partly cloudy 10 - - - -
29/09:50am 29.1 E 4 4 1013.7 - - - - 10 - - - -
29/09:40am 28.8 ESE 6 6 1013.6 - - - - 10 - - - -
29/09:30am 28.9 ESE 4 5 1013.5 - - - - 10 - - - -
29/09:20am 28.7 ESE 6 6 1013.5 - - - - 10 - - - -
29/09:10am 28.8 ESE 6 8 1013.5 - - - - 10 - - - -
29/09:00am 28.7 ESE 6 7 1013.4 - - - Partly cloudy 10 - - - -
29/08:50am 28.7 E 6 7 1013.3 - - - Partly cloudy 10 - - - -
29/08:40am 28.7 ESE 6 6 1013.2 - - - Partly cloudy 10 - - - -
29/08:30am 28.6 ESE 6 7 1013.1 - - - Partly cloudy 10 - - - -
29/08:20am 28.6 ESE 7 7 1012.9 - - - Partly cloudy 10 - - - -
29/08:10am 28.6 ESE 6 8 1012.8 - - - Partly cloudy 10 - - - -
29/08:00am 28.4 ESE 5 6 1012.7 - - - - 10 - - - -
29/07:50am 28.3 ESE 7 7 1012.6 - - - - 10 - - - -
29/07:40am 28.4 ESE 6 6 1012.5 - - - - 10 - - - -
29/07:30am 28.2 ESE 7 8 1012.4 - - - - 10 - - - -
29/07:20am 28.2 ESE 5 6 1012.3 - - - - 10 - - - -
29/07:10am 28.2 ESE 6 5 1012.1 - - - Partly cloudy 10 - - - -
29/07:00am 28.1 E 6 6 1012.0 - - - Partly cloudy 10 - - - -
29/06:50am 28.1 ESE 6 6 1012.0 - - - Partly cloudy 10 - - - -
29/06:40am 28.1 ESE 6 8 1012.0 - - - Partly cloudy 10 - - - -
29/06:30am 28.1 SSE 4 6 1011.8 - - - Partly cloudy 10 - - - -
29/06:20am 28.0 S 5 5 1011.9 - - - Partly cloudy 10 - - - -
29/06:10am 28.1 SSE 5 7 1011.8 - - - - 10 - - - -
29/06:00am 28.1 SE 5 7 1011.7 - - - Partly cloudy 10 - - - -
29/05:50am 28.1 SE 6 6 1011.6 - - - - 10 - - - -
29/05:40am 28.1 SE 6 7 1011.5 - - - - 10 - - - -
29/05:30am 28.2 ESE 6 9 1011.5 - - - Partly cloudy 10 - - - -
29/05:20am 28.1 ESE 6 7 1011.4 - - - Partly cloudy 10 - - - -
29/05:10am 28.1 SE 6 6 1011.3 - - - Partly cloudy 10 - - - -
29/05:00am 28.1 SSE 6 7 1011.2 - - - Partly cloudy 10 - - - -
29/04:50am 28.1 SE 6 8 1011.1 - - - Partly cloudy 10 - - - -
29/04:40am 28.1 SE 5 6 1011.1 - - - Partly cloudy 10 - - - -
29/04:30am 28.1 SE 5 6 1011.2 - - - Partly cloudy 10 - - - -
29/04:20am 28.2 SE 7 7 1011.2 - - - Partly cloudy 10 - - - -
29/04:10am 28.1 SE 7 8 1011.2 - - - Partly cloudy 10 - - - -
29/04:00am 28.2 SE 7 10 1011.1 - - - Partly cloudy 10 - - - -
29/03:50am 28.1 ESE 7 7 1011.2 - - - Partly cloudy 10 - - - -
29/03:40am 28.1 E 6 7 1011.2 - - - Partly cloudy 10 - - - -
29/03:30am 28.1 ESE 5 7 1011.2 - - - Partly cloudy 10 - - - -
29/03:20am 28.1 ESE 6 7 1011.3 - - - Partly cloudy 10 - - - -
29/03:10am 28.0 ESE 7 7 1011.4 - - - Partly cloudy 10 - - - -
29/03:00am 28.1 ESE 7 8 1011.4 - - - Partly cloudy 10 - - - -
29/02:50am 28.2 ESE 7 9 1011.4 - - - Partly cloudy 10 - - - -
29/02:40am 28.2 ESE 6 8 1011.5 - - - Partly cloudy 10 - - - -
29/02:30am 28.1 ESE 8 9 1011.7 - - - Partly cloudy 10 - - - -
29/02:20am 28.1 ESE 7 9 1011.6 - - - Partly cloudy 10 - - - -
29/02:10am 28.0 ESE 7 8 1011.6 - - - Partly cloudy 10 - - - -
29/02:00am 28.2 ESE 7 9 1011.8 - - - Partly cloudy 10 - - - -
29/01:50am 28.2 SE 7 6 1011.8 - - - Partly cloudy 10 - - - -
29/01:40am 28.2 ESE 6 8 1011.9 - - - - 10 - - - -
29/01:30am 28.2 SE 6 8 1012.0 - - - Partly cloudy 10 - - - -
29/01:20am 28.3 SE 6 7 1012.1 - - - Partly cloudy 10 - - - -
29/01:10am 28.2 SE 6 8 1012.1 - - - Partly cloudy 10 - - - -
29/01:00am 28.2 SE 6 6 1012.1 - - - Partly cloudy 10 - - - -
29/12:50am 28.3 SE 5 6 1012.3 - - - Partly cloudy 10 - - - -
29/12:40am 28.2 SE 6 7 1012.4 - - - Partly cloudy 10 - - - -
29/12:30am 28.4 SE 6 5 1012.4 - - - Partly cloudy 10 - - - -
29/12:20am 28.2 SE 6 9 1012.5 - - - Partly cloudy 10 - - - -
29/12:10am 28.2 SE 6 9 1012.5 - - - Partly cloudy 10 - - - -
29/12:00am 28.2 SE 6 7 1012.5 - - - Partly cloudy 10 - - - -
 
Date/Time
CST
Temp

°C
Wind Pressure Rain
since 9am
mm
Weather Cloud Vis
km
Sea
Height
m
Swell
Dir
 
Speed
knots
Gust
knots
hPa Trend Height
m
Period
s
Dir
28/11:50pm 28.3 SE 6 9 1012.6 - - - Partly cloudy 10 - - - -
28/11:40pm 28.3 SE 6 7 1012.6 - - - - 10 - - - -
28/11:30pm 28.4 SE 5 8 1012.6 - - - - 10 - - - -
28/11:20pm 28.3 SE 5 6 1012.6 - - - - 10 - - - -
28/11:10pm 28.3 SE 6 6 1012.6 - - - Partly cloudy 10 - - - -
28/11:00pm 28.4 SSE 4 5 1012.7 - - - - 10 - - - -
28/10:50pm 28.3 SE 3 5 1012.7 - - - - 10 - - - -
28/10:40pm 28.2 SE 4 6 1012.7 - - - - 10 - - - -
28/10:30pm 28.3 SSE 4 5 1012.8 - - - - 10 - - - -
28/10:20pm 28.3 SE 5 6 1012.8 - - - - 10 - - - -
28/10:10pm 28.4 SE 4 4 1012.8 - - - - 10 - - - -
28/10:00pm 28.4 SE 5 6 1012.8 - - - - 10 - - - -
28/09:50pm 28.4 SE 4 6 1012.9 - - - - 10 - - - -
28/09:40pm 28.4 SE 5 6 1012.9 - - - - 10 - - - -
28/09:30pm 28.4 SE 5 6 1012.8 - - - - 10 - - - -
28/09:20pm 28.4 SE 5 6 1012.7 - - - - 10 - - - -
28/09:10pm 28.4 SSE 4 6 1012.6 - - - - 10 - - - -
28/09:00pm 28.4 SSE 5 6 1012.4 - - - - 10 - - - -
28/08:50pm 28.4 SSE 4 5 1012.4 - - - - 10 - - - -
28/08:40pm 28.4 SSE 4 6 1012.2 - - - - 10 - - - -
28/08:30pm 28.4 SSE 4 5 1012.0 - - - - 10 - - - -
28/08:20pm 28.4 SSE 3 4 1012.0 - - - - 10 - - - -
28/08:10pm 28.4 S 3 5 1011.9 - - - - 10 - - - -
28/08:00pm 28.4 SE 4 4 1011.8 - - - - 10 - - - -
28/07:50pm 28.4 S 2 5 1011.8 - - - - 10 - - - -
28/07:40pm 28.5 S 2 3 1011.8 - - - - 10 - - - -
28/07:30pm 28.4 S 3 3 1011.7 - - - - 10 - - - -
28/07:20pm 28.4 ESE 1 2 1011.6 - - - - 10 - - - -
28/07:10pm 28.5 NE 1 2 1011.4 - - - - 10 - - - -
28/07:00pm 28.4 ENE 1 1 1011.2 - - - - 10 - - - -
28/06:50pm 28.5 NNE 1 2 1011.2 - - - - 10 - - - -
28/06:40pm 28.6 NNE 1 2 1011.1 - - - - 10 - - - -
28/06:30pm 28.7 NNE 2 2 1011.0 - - - Partly cloudy 10 - - - -
28/06:20pm 29.0 NW 2 2 1010.9 - - - - 10 - - - -
28/06:10pm 28.7 N 1 2 1010.7 - - - - 10 - - - -
28/06:00pm 29.5 - 3 2 1010.5 - - - - 10 - - - -
28/05:50pm 30.3 NNW 4 4 1010.3 - - - - 10 - - - -
28/05:40pm 30.1 NNW 4 5 1010.2 - - - - 10 - - - -
28/05:30pm 31.0 WNW 2 5 1010.2 - - - - 10 - - - -
28/05:20pm 30.9 W 2 2 1010.1 - - - - 10 - - - -
28/05:10pm 30.7 NW 2 4 1010.3 - - - - 10 - - - -
28/05:00pm 30.8 NNE 2 2 1010.2 - - - - 10 - - - -
28/04:50pm 30.1 - 3 3 1010.1 - - - - 10 - - - -
28/04:40pm 31.0 NW 3 3 1010.2 - - - - 10 - - - -
28/04:30pm 30.9 NNW 3 5 1010.2 - - - - 10 - - - -
28/04:20pm 30.5 - 3 3 1010.3 - - - - 10 - - - -
28/04:10pm 30.1 - 3 3 1010.3 - - - - 10 - - - -
28/04:00pm 30.6 N 3 4 1010.4 - - - - 10 - - - -
28/03:50pm 29.8 N 2 2 1010.5 - - - Partly cloudy 10 - - - -
28/03:40pm 29.3 NNW 1 3 1010.6 - - - Partly cloudy 10 - - - -
28/03:30pm 29.9 N 2 2 1010.8 - - - - 10 - - - -
28/03:20pm 29.2 E 1 2 1010.9 - - - - 10 - - - -
28/03:10pm 29.7 ENE 1 2 1010.9 - - - - 10 - - - -
28/03:00pm 30.9 NW 2 3 1011.2 - - - - 10 - - - -
28/02:50pm 31.2 NW 2 3 1011.3 - - - - 10 - - - -
28/02:40pm 30.4 NW 2 3 1011.4 - - - - 10 - - - -
28/02:30pm 31.5 NW 4 6 1011.5 - - - - 10 - - - -
28/02:20pm 31.1 NW 4 5 1011.7 - - - - 10 - - - -
28/02:10pm 30.1 WNW 3 6 1011.8 - - - - 10 - - - -
28/02:00pm 29.1 W 3 5 1011.9 - - - - 10 - - - -
28/01:50pm 28.7 SW 1 2 1012.1 - - - - 10 - - - -
28/01:40pm 28.7 W 2 3 1012.3 - - - - 10 - - - -

Other Formats:

Comma delimited format used in spreadsheet applications
http://www.bom.gov.au/fwo/IDD60701/IDD60701.95100.axf

JavaScript Object Notation format (JSON) in row-major order
http://www.bom.gov.au/fwo/IDD60701/IDD60701.95100.json